When you browse on this site, cookies collect data to enhance your experience and personalize the content and advertising you see.
Visit our Privacy Policy to learn more. By continuing to use the site, you agree to this use of cookies and data.
  • In Romania
  • List of Countries
  • For 7 days
  • Water Temperature
  • Weather Map
  • Weather Widgets
  • user-avatar
    Login

    Hourly Weather Solden

    Today, 31 May, Sunday

    Time Temperature Precipitation Wind Pressure Humidity
    00:00 0°C° 0 mm 1 mps 581 mmHg 89%
    01:00 -1°C° 0 mm 1 mps 581 mmHg 88%
    02:00 -1°C° 0 mm 1 mps 581 mmHg 88%
    03:00 -2°C° 0 mm 1 mps 580 mmHg 89%
    04:00 -2°C° 0 mm 1 mps 580 mmHg 89%
    05:00 -1°C° 0 mm 1 mps 581 mmHg 85%
    06:00 +1°C° 0 mm 1 mps 581 mmHg 81%
    07:00 +2°C° 0 mm 0 mps 582 mmHg 76%
    08:00 +4°C° 0 mm 1 mps 583 mmHg 70%
    09:00 +6°C° 0 mm 1 mps 583 mmHg 64%
    10:00 +7°C° 0 mm 1 mps 584 mmHg 58%
    11:00 +8°C° 0 mm 1 mps 584 mmHg 56%
    12:00 +9°C° 0 mm 1 mps 584 mmHg 55%
    13:00 +8°C° 0 mm 2 mps 585 mmHg 54%
    14:00 +8°C° 0 mm 2 mps 585 mmHg 53%
    15:00 +8°C° 0 mm 2 mps 585 mmHg 53%
    16:00 +8°C° 0 mm 2 mps 584 mmHg 53%
    17:00 +7°C° 0 mm 2 mps 584 mmHg 59%
    18:00 +6°C° 0 mm 2 mps 584 mmHg 64%
    19:00 +5°C° 0 mm 2 mps 583 mmHg 70%
    20:00 +3°C° 0 mm 2 mps 583 mmHg 73%
    21:00 +2°C° 0 mm 2 mps 582 mmHg 77%
    22:00 -1°C° 0 mm 2 mps 582 mmHg 80%
    23:00 +1°C° 0 mm 1 mps 582 mmHg 80%

    Tomorrow, 1 June, Monday

    Time Temperature Precipitation Wind Pressure Humidity
    00:00 0°C° 0 mm 1 mps 582 mmHg 80%
    01:00 0°C° 0 mm 1 mps 582 mmHg 80%
    02:00 0°C° 0 mm 1 mps 582 mmHg 79%
    03:00 -1°C° 0 mm 1 mps 581 mmHg 79%
    04:00 -1°C° 0 mm 1 mps 581 mmHg 79%
    05:00 +1°C° 0 mm 1 mps 582 mmHg 72%
    06:00 +3°C° 0 mm 0 mps 583 mmHg 66%
    07:00 +5°C° 0 mm 0 mps 585 mmHg 60%
    08:00 +8°C° 0 mm 1 mps 585 mmHg 55%
    09:00 +9°C° 0 mm 1 mps 586 mmHg 50%
    10:00 +11°C° 0 mm 1 mps 587 mmHg 45%
    11:00 +12°C° 0 mm 1 mps 587 mmHg 44%
    12:00 +13°C° 0 mm 1 mps 587 mmHg 43%
    13:00 +14°C° 0 mm 2 mps 588 mmHg 42%
    14:00 +14°C° 0.1 mm 2 mps 587 mmHg 45%
    15:00 +14°C° 0.1 mm 2 mps 587 mmHg 48%
    16:00 +13°C° 0.1 mm 2 mps 587 mmHg 51%
    17:00 +12°C° 0.5 mm 2 mps 586 mmHg 62%
    18:00 +10°C° 0.5 mm 1 mps 585 mmHg 73%
    19:00 +9°C° 0.5 mm 1 mps 585 mmHg 83%
    20:00 +7°C° 0.2 mm 1 mps 584 mmHg 86%
    21:00 +5°C° 0.2 mm 1 mps 584 mmHg 89%
    22:00 +4°C° 0.2 mm 1 mps 583 mmHg 92%
    23:00 +3°C° 0 mm 1 mps 583 mmHg 92%

    Day after tomorrow, 2 June, Tuesday

    Time Temperature Precipitation Wind Pressure Humidity
    00:00 +3°C° 0 mm 1 mps 582 mmHg 92%
    01:00 +2°C° 0 mm 1 mps 582 mmHg 92%
    02:00 +2°C° 0 mm 1 mps 582 mmHg 91%
    03:00 +2°C° 0 mm 1 mps 582 mmHg 90%
    04:00 +2°C° 0 mm 1 mps 581 mmHg 89%
    05:00 +3°C° 0 mm 1 mps 582 mmHg 85%
    06:00 +4°C° 0 mm 0 mps 583 mmHg 80%
    07:00 +6°C° 0 mm 0 mps 584 mmHg 75%
    08:00 +9°C° 0 mm 1 mps 585 mmHg 67%
    09:00 +11°C° 0 mm 1 mps 585 mmHg 58%
    10:00 +13°C° 0 mm 1 mps 586 mmHg 49%
    11:00 +13°C° 0.2 mm 1 mps 586 mmHg 48%
    12:00 +14°C° 0.2 mm 1 mps 586 mmHg 47%
    13:00 +14°C° 0.2 mm 2 mps 586 mmHg 47%
    14:00 +14°C° 0.6 mm 2 mps 585 mmHg 50%
    15:00 +13°C° 0.6 mm 2 mps 585 mmHg 54%
    16:00 +13°C° 0.6 mm 2 mps 584 mmHg 58%
    17:00 +10°C° 1 mm 2 mps 583 mmHg 66%
    18:00 +10°C° 1 mm 1 mps 582 mmHg 74%
    19:00 +8°C° 1 mm 1 mps 582 mmHg 83%
    20:00 +7°C° 0.3 mm 1 mps 581 mmHg 84%
    21:00 +5°C° 0.3 mm 1 mps 580 mmHg 85%
    22:00 +3°C° 0.3 mm 1 mps 580 mmHg 86%
    23:00 +3°C° 0 mm 1 mps 579 mmHg 86%

    3 June, Wednesday

    Time Temperature Precipitation Wind Pressure Humidity
    00:00 +3°C° 0 mm 1 mps 579 mmHg 86%
    01:00 +2°C° 0 mm 1 mps 579 mmHg 85%
    02:00 +2°C° 0 mm 1 mps 578 mmHg 85%
    03:00 +2°C° 0 mm 1 mps 578 mmHg 85%
    04:00 +1°C° 0 mm 1 mps 578 mmHg 84%
    05:00 +3°C° 0 mm 1 mps 579 mmHg 80%
    06:00 +4°C° 0 mm 0 mps 579 mmHg 76%
    07:00 +6°C° 0 mm 0 mps 580 mmHg 72%
    08:00 +8°C° 0.1 mm 1 mps 581 mmHg 66%
    09:00 +10°C° 0.1 mm 1 mps 582 mmHg 60%
    10:00 +12°C° 0.1 mm 1 mps 582 mmHg 54%
    11:00 +12°C° 0.3 mm 2 mps 582 mmHg 56%
    12:00 +12°C° 0.3 mm 2 mps 582 mmHg 57%
    13:00 +13°C° 0.3 mm 2 mps 582 mmHg 58%
    14:00 +12°C° 0.9 mm 2 mps 581 mmHg 63%
    15:00 +10°C° 0.9 mm 2 mps 581 mmHg 68%
    16:00 +10°C° 0.9 mm 2 mps 580 mmHg 74%
    17:00 +9°C° 0.9 mm 2 mps 580 mmHg 79%
    18:00 +9°C° 0.9 mm 1 mps 579 mmHg 85%
    19:00 +8°C° 0.9 mm 1 mps 579 mmHg 90%
    20:00 +7°C° 0.3 mm 1 mps 578 mmHg 92%
    21:00 +5°C° 0.3 mm 1 mps 578 mmHg 94%
    22:00 +4°C° 0.3 mm 1 mps 578 mmHg 95%
    23:00 +4°C° 0 mm 1 mps 578 mmHg 96%

    4 June, Thursday

    Time Temperature Precipitation Wind Pressure Humidity
    00:00 +5°C° 0 mm 1 mps 578 mmHg 96%
    01:00 +5°C° 0 mm 1 mps 578 mmHg 96%
    02:00 +5°C° 0 mm 1 mps 578 mmHg 96%
    03:00 +5°C° 0 mm 1 mps 577 mmHg 96%
    04:00 +4°C° 0 mm 1 mps 577 mmHg 96%
    05:00 +5°C° 0 mm 1 mps 578 mmHg 95%
    06:00 +6°C° 0 mm 1 mps 578 mmHg 93%
    07:00 +6°C° 0 mm 1 mps 578 mmHg 92%
    08:00 +7°C° 0.1 mm 1 mps 579 mmHg 87%
    09:00 +8°C° 0.1 mm 1 mps 579 mmHg 83%
    10:00 +8°C° 0.1 mm 2 mps 580 mmHg 79%
    11:00 +9°C° 0.3 mm 2 mps 580 mmHg 78%
    12:00 +9°C° 0.3 mm 2 mps 580 mmHg 76%
    13:00 +10°C° 0.3 mm 3 mps 580 mmHg 75%
    14:00 +9°C° 0.4 mm 3 mps 580 mmHg 79%
    15:00 +9°C° 0.4 mm 2 mps 579 mmHg 82%
    16:00 +8°C° 0.4 mm 2 mps 579 mmHg 86%
    17:00 +8°C° 0.4 mm 2 mps 579 mmHg 88%
    18:00 +7°C° 0.4 mm 2 mps 579 mmHg 90%
    19:00 +8°C° 0.4 mm 1 mps 579 mmHg 92%
    20:00 +7°C° 0.1 mm 1 mps 578 mmHg 93%
    21:00 +6°C° 0.1 mm 1 mps 578 mmHg 94%
    22:00 +5°C° 0.1 mm 1 mps 578 mmHg 95%
    23:00 +5°C° 0 mm 1 mps 578 mmHg 95%

    5 June, Friday

    Time Temperature Precipitation Wind Pressure Humidity
    00:00 +4°C° 0 mm 1 mps 578 mmHg 95%
    01:00 +4°C° 0 mm 1 mps 577 mmHg 94%
    02:00 +4°C° 0 mm 1 mps 577 mmHg 94%
    03:00 +3°C° 0 mm 1 mps 577 mmHg 93%
    04:00 +2°C° 0 mm 0 mps 577 mmHg 92%
    05:00 +4°C° 0 mm 0 mps 578 mmHg 88%
    06:00 +5°C° 0 mm 0 mps 579 mmHg 84%
    07:00 +7°C° 0 mm 0 mps 580 mmHg 80%
    08:00 +10°C° 0 mm 1 mps 581 mmHg 74%
    09:00 +11°C° 0 mm 1 mps 582 mmHg 68%
    10:00 +13°C° 0 mm 2 mps 583 mmHg 62%
    11:00 +13°C° 0.3 mm 2 mps 583 mmHg 64%
    12:00 +13°C° 0.3 mm 2 mps 583 mmHg 66%
    13:00 +14°C° 0.3 mm 2 mps 583 mmHg 67%
    14:00 +13°C° 1 mm 2 mps 582 mmHg 73%
    15:00 +12°C° 1 mm 2 mps 582 mmHg 79%
    16:00 +12°C° 1 mm 2 mps 582 mmHg 84%
    17:00 +10°C° 0.6 mm 2 mps 581 mmHg 88%
    18:00 +9°C° 0.6 mm 2 mps 581 mmHg 91%
    19:00 +8°C° 0.6 mm 2 mps 581 mmHg 94%
    20:00 +9°C° 0.4 mm 1 mps 580 mmHg 95%
    21:00 +8°C° 0.4 mm 1 mps 580 mmHg 96%
    22:00 +7°C° 0.4 mm 1 mps 580 mmHg 97%
    23:00 +7°C° 0.6 mm 1 mps 580 mmHg 98%
    Show more